Date String (YYYY-MM-DD hh:mm:ss) UTC,Instrument flags,Ambient pressure (hPa),Sample flow (lpm),Bypass flow (lpm),Sample temperature (°C),Ambient temperature (°C),ASC tube jacket temperature (°C),LED temperature (°C),Box temperature (°C),Sample RH (%),Span deviation,Mass concentration (μg/m³),Mass concentration (μg/m³),Mass concentration (μg/m³)
DateTimeUTC,F1_M11,P_M11,Q1_M11,Q2_M11,T1_M11,T2_M11,T3_M11,T4_M11,T5_M11,U1_M11,ZSPAN_M11,X0_M11,X2_M11,X1_M11
2022-01-07 04:00:00,,0816.7,4.99,0.00,21.7,21.4,00.0,31.0,23.0,06.4,0002.3,0018.72,0011.36,0010.27
2022-01-07 04:01:00,,0816.7,5.00,0.00,21.6,21.0,00.0,30.9,22.9,06.5,0002.3,0018.60,0011.39,0010.27
2022-01-07 04:02:00,,0817.2,5.00,0.00,21.5,20.8,00.0,30.9,22.8,06.6,0002.0,0018.21,0011.34,0010.26
2022-01-07 04:03:00,,0816.8,5.01,0.00,21.5,21.0,00.0,30.8,22.8,06.6,0002.0,0017.44,0011.32,0010.25
2022-01-07 04:04:00,,0816.6,4.99,0.00,21.6,21.8,00.0,30.9,23.2,06.5,0002.0,0017.38,0011.31,0010.25
2022-01-07 04:05:00,,0816.9,5.01,0.00,21.8,22.5,00.0,30.9,23.5,06.4,0002.1,0017.45,0011.33,0010.22
2022-01-07 04:06:00,,0816.8,4.99,0.00,21.9,23.1,00.0,30.9,23.8,06.3,0002.5,0017.37,0011.30,0010.20
2022-01-07 04:07:00,,0816.7,5.00,0.00,22.0,23.0,00.0,31.0,23.8,06.3,0002.5,0017.26,0011.27,0010.19
2022-01-07 04:08:00,,0816.9,5.01,0.00,22.0,22.6,00.0,31.0,23.7,06.2,0002.3,0017.33,0011.31,0010.23
2022-01-07 04:09:00,,0816.7,4.99,0.00,21.9,22.0,00.0,31.0,23.4,06.3,0002.1,0017.40,0011.31,0010.21
2022-01-07 04:10:00,,0816.9,5.02,0.00,21.8,21.4,00.0,30.9,23.1,06.3,0002.0,0017.27,0011.29,0010.21
2022-01-07 04:11:00,,0816.7,4.99,0.00,21.7,21.1,00.0,30.9,23.1,06.3,0002.2,0017.04,0011.31,0010.21
2022-01-07 04:12:00,,0817.0,5.01,0.00,21.6,21.0,00.0,30.9,23.0,06.3,0002.4,0016.70,0011.30,0010.23
2022-01-07 04:13:00,,0817.1,5.00,0.00,21.5,20.7,00.0,30.8,22.8,06.3,0002.3,0016.64,0011.31,0010.24
2022-01-07 04:14:00,,0817.0,5.00,0.00,21.5,20.9,00.0,30.8,22.9,06.3,0002.3,0016.71,0011.30,0010.24
2022-01-07 04:15:00,,0817.0,5.00,0.00,21.6,21.8,00.0,30.8,23.2,06.3,0002.4,0017.12,0011.28,0010.23
2022-01-07 04:16:00,,0817.0,5.00,0.00,21.8,22.6,00.0,30.8,23.5,06.2,0002.7,0017.01,0011.23,0010.23
2022-01-07 04:17:00,,0816.6,5.01,0.00,21.9,22.7,00.0,30.9,23.7,06.2,0002.6,0016.97,0011.20,0010.22
2022-01-07 04:18:00,,0816.8,4.99,0.00,21.9,22.3,00.0,30.9,23.6,06.1,0002.7,0016.89,0011.18,0010.22
2022-01-07 04:19:00,,0816.8,4.99,0.00,21.9,21.9,00.0,30.9,23.5,06.1,0003.0,0016.87,0011.14,0010.18
2022-01-07 04:20:00,,0817.0,5.01,0.00,21.8,21.6,00.0,30.8,23.4,06.1,0003.1,0016.86,0011.13,0010.18
2022-01-07 04:21:00,,0817.1,4.99,0.00,21.7,21.3,00.0,30.8,23.2,06.2,0003.1,0016.92,0011.15,0010.19
2022-01-07 04:22:00,,0817.2,5.00,0.00,21.6,21.1,00.0,30.8,23.1,06.2,0003.1,0016.90,0011.14,0010.18
2022-01-07 04:23:00,,0817.2,5.01,0.00,21.6,20.9,00.0,30.8,23.1,06.1,0002.6,0016.86,0011.12,0010.18
2022-01-07 04:24:00,,0817.2,5.00,0.00,21.6,21.5,00.0,30.8,23.2,06.0,0002.5,0016.81,0011.07,0010.14
2022-01-07 04:25:00,,0817.2,5.00,0.00,21.8,22.3,00.0,30.8,23.6,05.8,0001.9,0016.80,0011.04,0010.11
2022-01-07 04:26:00,,0817.0,4.99,0.00,22.0,22.9,00.0,30.9,23.8,05.7,0001.5,0016.30,0011.09,0010.13
2022-01-07 04:27:00,,0816.6,5.00,0.00,22.0,22.7,00.0,30.9,23.9,05.7,0001.3,0016.54,0011.12,0010.16
2022-01-07 04:28:00,,0816.9,5.01,0.00,22.0,22.3,00.0,30.9,23.8,05.8,0001.2,0017.20,0011.18,0010.20
2022-01-07 04:29:00,,0816.6,5.01,0.00,22.0,22.0,00.0,30.9,23.7,05.8,0001.3,0017.27,0011.23,0010.25
2022-01-07 04:30:00,,0816.6,5.00,0.00,21.9,21.7,00.0,30.9,23.5,05.9,0001.1,0017.28,0011.26,0010.28
2022-01-07 04:31:00,,0816.5,4.99,0.00,21.9,21.4,00.0,30.9,23.3,05.9,0001.2,0017.33,0011.28,0010.29
2022-01-07 04:32:00,,0816.4,5.01,0.00,21.7,21.0,00.0,30.9,23.1,06.0,0001.7,0017.42,0011.31,0010.32
2022-01-07 04:33:00,,0816.3,5.00,0.00,21.6,20.9,00.0,30.8,23.0,06.1,0001.8,0017.49,0011.33,0010.35
2022-01-07 04:34:00,,0816.3,5.00,0.00,21.7,21.6,00.0,30.9,23.3,06.3,0002.1,0017.72,0011.41,0010.39
2022-01-07 04:35:00,,0816.4,5.00,0.00,21.8,22.3,00.0,30.9,23.6,06.5,0002.2,0018.07,0011.44,0010.43
2022-01-07 04:36:00,,0816.5,5.00,0.00,22.0,22.8,00.0,30.9,23.8,06.7,0002.3,0018.01,0011.41,0010.43
2022-01-07 04:37:00,,0816.6,5.00,0.00,22.0,22.6,00.0,31.0,23.8,06.8,0002.5,0017.95,0011.33,0010.39
2022-01-07 04:38:00,,0816.5,5.02,0.00,22.0,22.1,00.0,31.0,23.5,06.8,0002.5,0017.76,0011.35,0010.39
2022-01-07 04:39:00,,0816.6,4.98,0.00,21.8,21.7,00.0,30.9,23.3,06.7,0002.5,0017.20,0011.33,0010.37
2022-01-07 04:40:00,,0816.6,5.01,0.00,21.7,21.4,00.0,30.9,23.1,06.5,0002.3,0017.14,0011.31,0010.33
2022-01-07 04:41:00,,0816.5,4.99,0.00,21.6,21.0,00.0,30.9,22.9,06.4,0002.2,0017.08,0011.29,0010.30
2022-01-07 04:42:00,,0816.4,5.01,0.00,21.5,20.9,00.0,30.8,22.8,06.3,0002.1,0017.07,0011.27,0010.29
2022-01-07 04:43:00,,0816.4,4.99,0.00,21.6,21.6,00.0,30.8,23.1,06.3,0002.0,0017.34,0011.27,0010.28
2022-01-07 04:44:00,,0816.4,5.00,0.00,21.7,22.4,00.0,30.9,23.5,06.2,0001.8,0017.44,0011.29,0010.28
2022-01-07 04:45:00,,0816.4,5.00,0.00,21.9,23.0,00.0,30.9,23.8,06.1,0001.9,0017.52,0011.27,0010.28
2022-01-07 04:46:00,,0816.5,5.00,0.00,22.0,22.8,00.0,30.9,23.8,06.0,0001.9,0017.74,0011.27,0010.26
2022-01-07 04:47:00,,0816.7,5.01,0.00,21.9,22.4,00.0,30.9,23.6,06.1,0002.1,0017.69,0011.32,0010.30
2022-01-07 04:48:00,,0816.4,5.00,0.00,21.9,21.9,00.0,30.9,23.5,06.5,0002.4,0017.84,0011.38,0010.32
2022-01-07 04:49:00,,0816.4,4.99,0.00,21.8,21.6,00.0,30.9,23.4,07.0,0002.4,0017.73,0011.29,0010.22
2022-01-07 04:50:00,,0816.4,4.99,0.00,21.8,21.3,00.0,30.9,23.3,07.7,0002.3,0017.24,0010.93,0009.90
2022-01-07 04:51:00,,0816.4,4.99,0.00,21.7,21.1,00.0,30.9,23.2,07.8,0002.4,0016.93,0010.63,0009.66
2022-01-07 04:52:00,,0816.4,5.02,0.00,21.6,20.8,00.0,30.8,23.0,07.6,0002.6,0017.08,0010.61,0009.63
2022-01-07 04:53:00,,0816.6,5.00,0.00,21.6,21.4,00.0,30.8,23.1,07.9,0002.7,0017.20,0010.59,0009.57
2022-01-07 04:54:00,,0816.7,4.99,0.00,21.8,22.2,00.0,30.9,23.4,08.1,0002.7,0016.71,0010.41,0009.38
2022-01-07 04:55:00,,0817.0,5.00,0.00,21.9,22.8,00.0,30.9,23.7,08.0,0002.5,0016.47,0010.29,0009.27
2022-01-07 04:56:00,,0816.6,5.01,0.00,22.1,23.2,00.0,31.0,23.9,07.9,0002.2,0016.21,0010.19,0009.17
2022-01-07 04:57:00,,0816.6,4.99,0.00,22.1,22.9,00.0,31.0,23.8,07.8,0002.1,0015.55,0010.14,0009.11
2022-01-07 04:58:00,,0816.5,5.01,0.00,22.0,22.4,00.0,31.0,23.6,07.9,0002.4,0015.37,0010.04,0009.00
2022-01-07 04:59:00,,0816.5,5.00,0.00,21.9,21.7,00.0,31.0,23.3,07.9,0002.5,0015.18,0009.93,0008.94
